Location: Alafon
(8.4500°N, 4.2333°E)
Time: 01:37:33
(UTC+00:00)

CZ-2D R/B - Pass Details

Date: 05 July 2020
Orbit: 521 x 538 km, 97.4° (Epoch: 06 August)

Event Time Altitude Azimuth Distance (km) Brightness Sun altitude
Rises 18:36:59 0° 170° (S) 2,678 6.5 -7.9°
Reaches altitude 10° 18:39:06 10° 171° (S) 1,785 5.6 -8.4°
Maximum altitude 18:42:57 83° 258° (WSW) 540 3.3 -9.2°
Drops below altitude 10° 18:46:47 10° 347° (NNW) 1,774 6.5 -10.1°
Sets 18:48:53 0° 348° (NNW) 2,660 7.4 -10.6°
